Tracking 20242 objects as of 24-Jan-2020
HD Live streaming from Space Station
objects crossing your sky now

SL-12 R/B(2)

Track SL-12 R/B(2) now!


NORAD ID: 26090
Int'l Code: 2000-011B
Perigee: 6,323.7 km
Apogee: 35,870.0 km
Inclination: 16.2 °
Period: 755.1 minutes
Semi major axis: 27467 km
RCS: 23.8279 m2 (large)
Launch date: February 12, 2000
Source: Commonwealth of Independent States (former USSR) (CIS)
Launch site: TYURATAM MISSILE AND SPACE COMPLEX (TTMTR)

Note: This is a ROCKET BODY
aabbcc
Your satellite tracking list
Your tracking list is empty




NASA's NSSDC Master Catalog

Two Line Element Set (TLE):
1 26090U 00011B   20023.24461983 -.00000204 +00000-0 +00000-0 0  9990
2 26090 016.1725 140.0992 5378357 172.4503 216.0764 01.90706698138921
Source of the keplerian elements: AFSPC